LASARSAT

Last updated on Wed Feb 05 2025 00:03:37 GMT+0000 (Coordinated Universal Time)

1 62391U 24247Q 25033.54176072 .00026515 00000+0 12215-2 0 9996 2 62391 44.9940 128.9295 0004349 331.6196 28.4446 15.19881945 6698
UTC large
Height (km)
Speed (km/s)
/
Latitude / Longitude
Inclination (degrees)
Orbital Period (minutes)
Azimuth
Elevation
Range (km)
Doppler Factor

Next 0 passes for location: London (51.5072 / 0.1276)

Sorry there are no passes over London.